Regional Weather Roundup
Issued by NWS San Angelo, TX

Home | Current Version | Previous Version | Text Only | Print | Product List | Glossary On
Versions: 1 2 3 4 5 6 7 8 9 10 11 12 13 14 15 16 17 18 19 20 21 22 23 24 25 26 27 28 29 30 31 32 33 34 35 36 37 38 39 40 41 42 43 44 45 46 47 48 49 50
000
ASUS44 KSJT 271511
RWRSJT
WEST CENTRAL TEXAS REGIONAL WEATHER ROUNDUP
NATIONAL WEATHER SERVICE SAN ANGELO TX
1000 AM CDT SAT AUG 27 2016

NOTE: "FAIR" INDICATES FEW OR NO CLOUDS BELOW 12,000 FEET WITH NO
SIGNIFICANT WEATHER AND/OR OBSTRUCTIONS TO VISIBILITY.

TXZ049-054-064>066-071>073-076>078-098-099-113-114-127-128-139-140-
154-155-168>170-271600
...LOCATIONS ACROSS WEST CENTRAL TEXAS...

CITY           SKY/WX    TMP DP  RH WIND       PRES   REMARKS
SAN ANGELO     SUNNY     82  69  64 SW10      30.06F
ABILENE        SUNNY     80  70  71 SW9       30.06S
DYESS AFB      CLOUDY    82  68  61 SW10      30.05R
JUNCTION       MOSUNNY   80  69  69 SW3       30.06F
SWEETWATER     PTSUNNY   79  66  62 SW15      30.11R
BROWNWOOD      SUNNY     81  70  69 SW10      30.06S
COLEMAN        MOSUNNY   80  69  68 W9        30.07S
SONORA         SUNNY     79  70  73 S3        30.12S
OZONA          FAIR      81  66  61 SW7       30.11S
BRADY          NOT AVBL
$$

TEXAS PANHANDLE/OKLAHOMA PANHANDLE

CITY           SKY/WX    TMP DP  RH WIND       PRES   REMARKS
AMARILLO       SUNNY     70  62  76 S12       30.13R
BORGER         SUNNY     75  61  61 SW7       30.09S
CANADIAN       SUNNY     76  65  68 S5        30.07F
DALHART        MOSUNNY   70  63  78 SW12      30.12F
DUMAS          SUNNY     73  64  73 SW17      30.11R
GUYMON         NOT AVBL
HEREFORD       CLOUDY    70  62  76 SW10G18   30.14F
PAMPA          SUNNY     76  62  62 SW12      30.11F
PERRYTON       SUNNY     73  63  69 S8        30.08S
$$

SOUTHERN PANHANDLE/SOUTH PLAINS/ROLLING PLAINS

CITY           SKY/WX    TMP DP  RH WIND       PRES   REMARKS
LUBBOCK        MOSUNNY   74  64  71 W8        30.11S
SNYDER           N/A     76  67  75 S8        30.09S
CHILDRESS      SUNNY     74  68  81 CALM      30.06F
SEMINOLE       SUNNY     74  64  70 S8        30.13S
$$

PERMIAN BASIN

CITY           SKY/WX    TMP DP  RH WIND       PRES   REMARKS
MIDLAND        SUNNY     76  66  71 S14       30.10F
ODESSA         SUNNY     75  64  68 S13       30.11S
WINK           SUNNY     75  64  68 S9        30.08S
$$

FAR WEST/SOUTHWEST MOUNTAINS/TRANS PECOS

CITY           SKY/WX    TMP DP  RH WIND       PRES   REMARKS
ALPINE         SUNNY     74  60  62 S12       30.22F
DRYDEN           N/A     75  70  84 VRB7      30.06R
EL PASO        MOSUNNY   75  61  61 SE7       30.11S
FORT STOCKTON  SUNNY     74  62  66 S8        30.10R
GUADALUPE PASS SUNNY     66  60  81 SW8       30.23S
MARFA          SUNNY    N/A N/A N/A SE8       30.21F
PECOS          SUNNY     72  64  76 CALM      30.07F
$$

DALLAS/FORT WORTH METROPLEX

CITY           SKY/WX    TMP DP  RH WIND       PRES   REMARKS
DFW AIRPORT    MOSUNNY   82  71  69 SE7       30.04S
FTW MEACHAM    SUNNY     82  72  71 E8        30.04S
DAL-EXECUTIVE  MOSUNNY   78  74  87 E5        30.05S
GRAND PRAIRIE  SUNNY     79  70  73 E7        30.06S
ADDISON        SUNNY     79  77  94 SE6       30.06S
MESQUITE       SUNNY     79  73  83 CALM      30.05S
LANCASTER      CLOUDY    80  73  79 CALM      30.06S
$$

NORTH CENTRAL TEXAS

CITY           SKY/WX    TMP DP  RH WIND       PRES   REMARKS
SHRMAN/DENISON PTSUNNY   78  74  88 E5        30.07S
GAINESVILLE      N/A     78  72  80 S6        30.07S
BRIDGEPORT     SUNNY     79  74  84 E5        30.07S
DENTON         SUNNY     80  72  76 SE6       30.04S
WAXAHACHIE     MOSUNNY   78  75  92 CALM      30.07S
GRANBURY       MOSUNNY   81  72  73 SE3       30.05S
$$

WESTERN NORTH TEXAS

CITY           SKY/WX    TMP DP  RH WIND       PRES   REMARKS
WICHITA FALLS  SUNNY     80  70  71 SE10      30.03S
VERNON         SUNNY     81  65  58 CALM      30.04S
BRECKENRIDGE   SUNNY     84  69  59 W6        30.03S
COMANCHE       MOSUNNY   80  72  75 W7        30.06S
$$

CENTRAL AND SOUTH CENTRAL TEXAS

CITY           SKY/WX    TMP DP  RH WIND       PRES   REMARKS
AUSTIN/BERGSTM MOSUNNY   81  74  79 E3        30.02S
WACO           MOSUNNY   79  75  87 E5        30.04S
HILLSBORO      SUNNY     78  72  81 E6        30.05F
TEMPLE         SUNNY     80  73  79 E3        30.05R
KILLEEN-GRAY   SUNNY     79  73  81 CALM      30.04R
FORT HOOD      SUNNY     79  72  80 CALM      30.03R
GEORGETOWN     MOSUNNY   77  72  83 CALM      30.04
LAGO VISTA     FAIR      80  70  70 CALM      30.07R
SAN MARCOS     MOSUNNY   82  73  74 CALM      30.05S
NEW BRAUNFELS  MOSUNNY   82  74  76 CALM      30.02R
RANDOLPH AFB   MOSUNNY   80  75  87 CALM      30.02S
SAN ANTONIO    MOSUNNY   82  72  71 VRB3      30.02F
STINSON        SUNNY     82  73  74 CALM      30.00S
PLEASANTON     NOT AVBL
LA GRANGE      SUNNY     82  75  80 E3        30.00S
GIDDINGS       MOSUNNY   80  73  80 E5        30.07R
$$

EAST TEXAS

CITY           SKY/WX    TMP DP  RH WIND       PRES   REMARKS
PARIS          CLOUDY    82  72  69 CALM      30.06S
CLARKSVILLE    NOT AVBL
TYLER          CLOUDY    81  73  76 VRB6      30.05R
LONGVIEW       MOSUNNY   81  75  82 CALM      30.04R
PALESTINE      CLOUDY    78  75  90 NE5       30.06S
NACOGDOCHES    CLOUDY   N/A N/A N/A CALM      30.03R
$$

TEXAS HILL COUNTRY AND EDWARDS PLATEAU

CITY           SKY/WX    TMP DP  RH WIND       PRES   REMARKS
LLANO          SUNNY     81  79  94 W5        30.08S
HORSESHOE BAY  FAIR      80  71  72 CALM      30.05S
KERRVILLE      PTSUNNY   77  71  83 NW5       30.07S
FREDERICKSBRG  MOSUNNY   77  69  76 W5        30.06S
ROCKSPRINGS    MOSUNNY   79  70  73 S7        30.11S
HONDO          MOSUNNY   81  73  76 CALM      30.03S
UVALDE         PTSUNNY   79  73  82 CALM      30.03S HAZE
DEL RIO        PTSUNNY   79  73  82 SE6       30.01R
$$

SOUTHEAST TEXAS

CITY           SKY/WX    TMP DP  RH WIND       PRES   REMARKS
COLLEGE STN    CLOUDY    79  74  84 N3        30.03S
CALDWELL       MOSUNNY   75  75 100 NE3       30.07R
CROCKETT       CLOUDY    77  77 100 E3        30.07S
BRENHAM        MOSUNNY   79  76  90 CALM      30.04R
HUNTSVILLE     MOSUNNY   78  74  87 CALM      30.04R
CONROE         CLOUDY    78  75  90 NE3       30.03R
HOUSTON BUSH   PTSUNNY   78  74  87 VRB6      30.02R
HOUSTON HOBBY  PTSUNNY   81  74  79 N7        30.00R
PERLAND        PTSUNNY   83  75  77 N6        30.02R
WHARTON        MOSUNNY   80  76  86 NE5       30.01S
$$

THE UPPER TEXAS COAST

CITY           SKY/WX    TMP DP  RH WIND       PRES   REMARKS
ORANGE         CLOUDY    78  75  90 NE5       30.02S
PORT ARTHUR    LGT RAIN  79  75  87 NE8       29.99R
GALVESTON      CLOUDY    82  75  79 N8        30.00R
ANGLETON       PTSUNNY   83  76  79 N3        29.99R
BAY CITY       PTSUNNY   81  76  85 NE3       30.00R
$$

TEXAS COASTAL BEND, RIO GRANDE PLAINS DEEP SOUTH TEXAS

CITY           SKY/WX    TMP DP  RH WIND       PRES   REMARKS
VICTORIA       SUNNY     82  74  76 N8        30.00S
BEEVILLE       PTSUNNY   80  77  93 NE3       30.00R
ROCKPORT       MOSUNNY   86  75  69 N9        29.97R
PORT ARANSAS   PTSUNNY   82  78  87 N8        29.97R
PORT LAVACA    MOSUNNY   82  77  83 NE9       30.00R
CORPUS CHRISTI MOSUNNY   85  77  77 N9        29.98R
KINGSVILLE NAS NOT AVBL
COTULLA        MOSUNNY   83  74  74 SE5       30.00S
LAREDO         PTSUNNY   83  75  77 E3        30.00R
BROWNSVILLE    MOSUNNY   89  75  63 VRB3      29.96R
PORT ISABEL    MOSUNNY   88  75  65 N5        29.95R
HEBBRONVILLE   MOSUNNY   82  74  77 CALM      30.01R
MCALLEN        MOSUNNY   88  75  65 E5        29.96S
WESLACO        MOSUNNY   78  55  45 NE3       29.96R
FALFURRIAS     MOSUNNY   85  74  69 N3        29.97S
EDINBURG       PTSUNNY   87  75  66 CALM      29.97S
$$




USA.gov is the U.S. government's official web portal to all federal, state and local government web resources and services.